Location: Bluff Heights
(33.7692°N, 118.1592°W)
Time: 09:54:46
(UTC+00:00)

Tiros 1 - Pass Details

Date: 27 July 2021
Orbit: 630 x 663 km, 48.4° (Epoch: 22 September)

Event Time Altitude Azimuth Distance (km) Brightness Sun altitude
Rises 01:17:11 0° 178° (S) 2,971 10.4 19.0°
Reaches altitude 10° 01:21:22 10° 143° (SE) 2,059 9.4 18.2°
Maximum altitude 01:22:38 11° 127° (SE) 1,993 9.2 17.9°
Drops below altitude 10° 01:23:54 10° 111° (ESE) 2,058 9.2 17.6°
Sets 01:28:04 0° 76° (ENE) 2,965 10.0 16.8°
